Location: Cheching
(60.0667°N, 164.2167°W)
Time: 13:21:07
(UTC+00:00)

CUTE-I - Visible Passes

Search period start: 16 January 2021 00:00
Search period end: 26 January 2021 00:00
Orbit: 810 x 825 km, 98.7° (Epoch: 15 January)

Date Brightness Start Highest point End Pass type
(mag) Time Alt. Az. Time Alt. Az. Time Alt. Az.
16 Jan ? 04:19:00 10° S 04:24:21 65° WSW 04:29:41 10° NNW visible
16 Jan ? 06:02:10 10° WSW 06:05:27 16° W 06:08:44 10° NW visible
16 Jan ? 16:26:02 10° NNE 16:30:28 26° E 16:34:53 10° SE visible
16 Jan ? 18:05:46 10° NNE 18:11:07 80° WNW 18:16:27 10° SSW visible
17 Jan ? 03:57:25 10° SSE 04:02:48 86° WSW 04:08:11 10° NNW visible
17 Jan ? 05:39:31 10° SW 05:43:37 22° W 05:47:43 10° NW visible
17 Jan ? 16:04:52 10° NE 16:08:40 19° E 16:12:27 10° SE visible
17 Jan ? 17:44:15 10° NNE 17:49:37 78° ESE 17:54:56 10° SSW visible
18 Jan ? 03:35:58 10° SSE 03:41:18 72° ENE 03:46:39 10° NNW visible
18 Jan ? 05:17:12 10° SSW 05:21:51 29° W 05:26:30 10° NNW visible
18 Jan ? 15:44:02 10° NE 15:46:49 14° E 15:49:35 10° ESE visible
18 Jan ? 17:22:46 10° NNE 17:28:02 58° ESE 17:33:17 10° S visible
19 Jan ? 04:55:08 10° SSW 05:00:08 39° W 05:05:10 10° NNW visible
19 Jan ? 17:01:20 10° NNE 17:06:25 42° E 17:11:27 10° S visible
19 Jan ? 18:41:28 10° NNE 18:46:37 50° WNW 18:51:44 10° SW visible
20 Jan ? 04:33:16 10° S 04:38:30 53° W 04:43:45 10° NNW visible
20 Jan ? 06:17:21 10° WSW 06:19:48 13° W 06:22:15 10° NW visible
20 Jan ? 16:39:58 10° NNE 16:44:44 31° E 16:49:26 10° SSE visible
20 Jan ? 18:19:54 10° NNE 18:25:12 67° WNW 18:30:28 10° SSW visible
21 Jan ? 04:11:34 10° S 04:16:55 72° WSW 04:22:17 10° NNW visible
21 Jan ? 05:54:20 10° SW 05:57:55 18° W 06:01:32 10° NW visible
21 Jan ? 16:18:43 10° NE 16:22:58 23° E 16:27:11 10° SE visible
21 Jan ? 17:58:21 10° NNE 18:03:43 88° WNW 18:09:03 10° SSW visible
22 Jan ? 03:50:01 10° SSE 03:55:23 86° ENE 04:00:46 10° NNW visible
22 Jan ? 05:31:49 10° SW 05:36:07 24° W 05:40:25 10° NW visible
22 Jan ? 15:57:39 10° NE 16:01:09 17° E 16:04:38 10° SE visible
22 Jan ? 17:36:50 10° NNE 17:42:11 70° ESE 17:47:29 10° S visible
23 Jan ? 03:28:37 10° SE 03:33:55 66° ENE 03:39:13 10° NNW visible
23 Jan ? 05:09:35 10° SSW 05:14:22 32° W 05:19:10 10° NNW visible
23 Jan ? 15:36:59 10° NE 15:39:16 13° ENE 15:41:32 10° ESE visible
23 Jan ? 17:15:23 10° NNE 17:20:36 52° E 17:25:47 10° S visible
24 Jan ? 04:47:35 10° S 04:52:40 43° W 04:57:47 10° NNW visible
24 Jan ? 06:33:23 10° W 06:34:11 10° WNW 06:35:00 10° WNW visible
24 Jan ? 16:53:58 10° NNE 16:58:57 38° E 17:03:53 10° SSE visible
24 Jan ? 18:34:02 10° NNE 18:39:14 55° WNW 18:44:25 10° SW visible
25 Jan ? 04:25:47 10° S 04:31:04 59° WSW 04:36:21 10° NNW visible
25 Jan ? 06:09:21 10° WSW 06:12:16 15° W 06:15:10 10° NW visible
25 Jan ? 16:32:38 10° NNE 16:37:14 28° E 16:41:47 10° SSE visible
25 Jan ? 18:12:28 10° NNE 18:17:48 73° WNW 18:23:05 10° SSW visible
